Weather History for Cook, MN

Change the Weather History Date:

Monday, September 2, 2013

  Actual Average Record
Temperature  
Mean Temperature 54 °F -  
Max Temperature 66 °F 70 °F 87 °F (2004)
Min Temperature 42 °F 49 °F 39 °F (1997)
Degree Days  
Heating Degree Days 11    
Growing Degree Days 4 (Base 50)    
Moisture  
Dew Point 46 °F    
Average Humidity 76    
Maximum Humidity 100    
Minimum Humidity 45    
Precipitation  
Precipitation 0.00 in - - ()
Sea Level Pressure  
Sea Level Pressure 30.07 in    
Wind  
Wind Speed 2 mph (North)    
Max Wind Speed 7 mph    
Max Gust Speed -    
Visibility 10 miles    
Events      
Averages and records for this station are not official NWS values.
T = Trace of Precipitation, MM = Missing Value Source: NWS Daily Summary

Daily Weather History Graph

Daily Weather History Graph

Search for Another Location

Airport:

Trip Planner

Search our weather history database for the weather conditions in past years. The results will help you decide how hot, cold, wet, or windy it might be!

Date:

Astronomy

Sep. 02, 2013 Rise Set
Actual Time 6:30 AM CDT 7:48 PM CDT
Civil Twilight 5:58 AM CDT 8:20 PM CDT
Nautical Twilight 5:20 AM CDT 8:59 PM CDT
Astronomical Twilight 4:38 AM CDT 9:40 PM CDT
Moon 3:40 AM CDT (9/2) 6:07 PM CDT (9/2)
Length of Visible Light 14h 22m
Length of Day
13h 18m
Waning Crescent, 8% of the Moon is Illuminated
Sep 2
Waning Crescent
Sep 5
New
Sep 12
First Quarter
Sep 19
Full
Sep 26
Last Quarter

Hourly Weather History & Observations

Time (CDT) Temp. Dew Point Humidity Pressure Visibility Wind Dir Wind Speed Gust Speed Precip Events Conditions
12:16 AM 50.0 °F 48.2 °F 94% 30.04 in 10.0 mi Calm Calm - N/A   Mostly Cloudy
12:36 AM 50.0 °F 48.2 °F 94% 30.04 in 10.0 mi Calm Calm - N/A   Mostly Cloudy
12:57 AM 50.0 °F 48.2 °F 94% 30.04 in 10.0 mi North 3.5 mph - N/A   Mostly Cloudy
1:16 AM 50.0 °F 48.2 °F 94% 30.04 in 10.0 mi NNW 3.5 mph - N/A   Overcast
1:36 AM 50.0 °F 46.4 °F 87% 30.04 in 10.0 mi North 5.8 mph - N/A   Overcast
1:57 AM 51.8 °F 46.4 °F 82% 30.04 in 10.0 mi NNE 5.8 mph - N/A   Overcast
2:16 AM 50.0 °F 46.4 °F 87% 30.04 in 10.0 mi North 4.6 mph - N/A   Overcast
2:36 AM 50.0 °F 46.4 °F 87% 30.03 in 10.0 mi North 4.6 mph - N/A   Overcast
2:57 AM 50.0 °F 46.4 °F 87% 30.03 in 10.0 mi Calm Calm - N/A   Overcast
3:16 AM 50.0 °F 46.4 °F 87% 30.03 in 10.0 mi Calm Calm - N/A   Overcast
3:36 AM 50.0 °F 46.4 °F 87% 30.04 in 10.0 mi North 3.5 mph - N/A   Overcast
3:57 AM 50.0 °F 46.4 °F 87% 30.05 in 10.0 mi North 3.5 mph - N/A   Overcast
4:16 AM 50.0 °F 46.4 °F 87% 30.05 in 10.0 mi Calm Calm - N/A   Overcast
4:36 AM 50.0 °F 46.4 °F 87% 30.06 in 10.0 mi NNW 3.5 mph - N/A   Overcast
4:57 AM 50.0 °F 46.4 °F 87% 30.06 in 10.0 mi North 3.5 mph - N/A   Overcast
5:16 AM 50.0 °F 46.4 °F 87% 30.06 in 10.0 mi North 4.6 mph - N/A   Overcast
5:36 AM 50.0 °F 46.4 °F 87% 30.06 in 10.0 mi NNE 4.6 mph - N/A   Overcast
5:57 AM 48.2 °F 46.4 °F 93% 30.07 in 10.0 mi North 4.6 mph - N/A   Overcast
6:16 AM 48.2 °F 46.4 °F 93% 30.07 in 10.0 mi North 4.6 mph - N/A   Overcast
6:36 AM 48.2 °F 46.4 °F 93% 30.08 in 10.0 mi North 3.5 mph - N/A   Overcast
6:57 AM 48.2 °F 46.4 °F 93% 30.09 in 10.0 mi NNW 3.5 mph - N/A   Overcast
7:16 AM 48.2 °F 44.6 °F 87% 30.09 in 10.0 mi Calm Calm - N/A   Overcast
7:36 AM 48.2 °F 44.6 °F 87% 30.09 in 10.0 mi Calm Calm - N/A   Overcast
7:57 AM 50.0 °F 44.6 °F 82% 30.10 in 10.0 mi North 3.5 mph - N/A   Overcast
8:16 AM 50.0 °F 42.8 °F 76% 30.10 in 10.0 mi North 4.6 mph - N/A   Overcast
8:36 AM 50.0 °F 42.8 °F 76% 30.11 in 10.0 mi North 3.5 mph - N/A   Overcast
8:57 AM 50.0 °F 44.6 °F 82% 30.11 in 10.0 mi NNW 3.5 mph - N/A   Overcast
9:16 AM 50.0 °F 42.8 °F 76% 30.12 in 10.0 mi NNW 6.9 mph - N/A   Overcast
9:37 AM 51.8 °F 44.6 °F 76% 30.12 in 10.0 mi North 3.5 mph - N/A   Overcast
9:56 AM 51.8 °F 44.6 °F 76% 30.12 in 10.0 mi Calm Calm - N/A   Overcast
10:16 AM 51.8 °F 44.6 °F 76% 30.11 in 10.0 mi NW 4.6 mph - N/A   Overcast
10:37 AM 51.8 °F 44.6 °F 76% 30.12 in 10.0 mi NNW 4.6 mph - N/A   Overcast
10:56 AM 53.6 °F 44.6 °F 72% 30.12 in 10.0 mi NW 3.5 mph - N/A   Overcast
11:17 AM 53.6 °F 46.4 °F 77% 30.12 in 10.0 mi NW 5.8 mph - N/A   Overcast
11:36 AM 55.4 °F 44.6 °F 67% 30.12 in 10.0 mi Calm Calm - N/A   Mostly Cloudy
11:56 AM 55.4 °F 44.6 °F 67% 30.11 in 10.0 mi Calm Calm - N/A   Scattered Clouds
12:17 PM 57.2 °F 44.6 °F 63% 30.11 in 10.0 mi West 3.5 mph - N/A   Clear
12:36 PM 57.2 °F 44.6 °F 63% 30.11 in 10.0 mi Calm Calm - N/A   Clear
12:57 PM 60.8 °F 46.4 °F 59% 30.10 in 10.0 mi NNW 5.8 mph - N/A   Clear
1:16 PM 60.8 °F 44.6 °F 55% 30.10 in 10.0 mi WNW 3.5 mph - N/A   Clear
1:36 PM 60.8 °F 46.4 °F 59% 30.10 in 10.0 mi NW 3.5 mph - N/A   Clear
1:57 PM 62.6 °F 46.4 °F 55% 30.09 in 10.0 mi Calm Calm - N/A   Clear
2:16 PM 62.6 °F 46.4 °F 55% 30.08 in 10.0 mi Calm Calm - N/A   Clear
2:37 PM 62.6 °F 46.4 °F 55% 30.08 in 10.0 mi NNE 3.5 mph - N/A   Clear
2:56 PM 64.4 °F 46.4 °F 52% 30.07 in 10.0 mi Calm Calm - N/A   Clear
3:16 PM 64.4 °F 46.4 °F 52% 30.07 in 10.0 mi NNW 4.6 mph - N/A   Clear
3:37 PM 64.4 °F 44.6 °F 49% 30.07 in 10.0 mi NW 4.6 mph - N/A   Clear
3:56 PM 64.4 °F 44.6 °F 49% 30.06 in 10.0 mi North 3.5 mph - N/A   Clear
4:16 PM 64.4 °F 44.6 °F 49% 30.06 in 10.0 mi Calm Calm - N/A   Clear
4:36 PM 64.4 °F 44.6 °F 49% 30.06 in 10.0 mi Calm Calm - N/A   Clear
4:56 PM 64.4 °F 42.8 °F 45% 30.06 in 10.0 mi Calm Calm - N/A   Clear
5:17 PM 66.2 °F 46.4 °F 49% 30.05 in 10.0 mi Calm Calm - N/A   Clear
5:36 PM 64.4 °F 44.6 °F 49% 30.05 in 10.0 mi Calm Calm - N/A   Clear
5:56 PM 64.4 °F 44.6 °F 49% 30.05 in 10.0 mi North 3.5 mph - N/A   Clear
6:17 PM 64.4 °F 44.6 °F 49% 30.05 in 10.0 mi Calm Calm - N/A   Clear
6:36 PM 64.4 °F 44.6 °F 49% 30.05 in 10.0 mi Calm Calm - N/A   Clear
6:56 PM 64.4 °F 46.4 °F 52% 30.05 in 10.0 mi Calm Calm - N/A   Clear
7:16 PM 60.8 °F 46.4 °F 59% 30.05 in 10.0 mi Calm Calm - N/A   Clear
7:37 PM 57.2 °F 50.0 °F 77% 30.04 in 10.0 mi Calm Calm - N/A   Clear
7:56 PM 55.4 °F 48.2 °F 77% 30.04 in 10.0 mi Calm Calm - N/A   Clear
8:16 PM 53.6 °F 48.2 °F 82% 30.04 in 10.0 mi Calm Calm - N/A   Clear
8:36 PM 51.8 °F 48.2 °F 88% 30.04 in 10.0 mi Calm Calm - N/A   Clear
8:56 PM 50.0 °F 48.2 °F 94% 30.04 in 10.0 mi Calm Calm - N/A   Clear
9:17 PM 48.2 °F 46.4 °F 93% 30.04 in 10.0 mi Calm Calm - N/A   Clear
9:36 PM 48.2 °F 46.4 °F 93% 30.04 in 10.0 mi Calm Calm - N/A   Clear
9:56 PM 46.4 °F 46.4 °F 100% 30.04 in 10.0 mi Calm Calm - N/A   Clear
10:16 PM 46.4 °F 46.4 °F 100% 30.04 in 10.0 mi Calm Calm - N/A   Clear
10:36 PM 46.4 °F 44.6 °F 93% 30.04 in 10.0 mi Calm Calm - N/A   Clear
10:57 PM 44.6 °F 44.6 °F 100% 30.04 in 10.0 mi Calm Calm - N/A   Clear
11:16 PM 44.6 °F 44.6 °F 100% 30.04 in 5.0 mi Calm Calm - N/A   Clear
11:36 PM 42.8 °F 42.8 °F 100% 30.04 in 10.0 mi Calm Calm - N/A   Clear
11:57 PM 42.8 °F 42.8 °F 100% 30.04 in 10.0 mi Calm Calm - N/A   Clear